184  
ASUS41 KCLE 081912  
RWRCLE  
OHIO REGIONAL WEATHER ROUNDUP  
NATIONAL WEATHER SERVICE WILMINGTON, OH  
200 PM EST THU DEC 08 2022  
 
NOTE: "FAIR" INDICATES FEW OR NO CLOUDS BELOW 12,000 FEET WITH NO  
SIGNIFICANT WEATHER AND/OR S TO VISIBILITY
.  
 
OHZ001>008-015>018-024>027-034-035-043-044-082000-  
NORTHWEST OHIO  
 
CITY SKY/WX TMP DP RH WIND PRES REMARKS
 
DEFIANCE CLOUDY 41 32 70 E10 30.31F  
FINDLAY CLOUDY 43 36 76 NE12 30.29F  
TOLEDO EXPRESS CLOUDY 43 32 65 NE8 30.32F  
TOLEDO EXEC CLOUDY 42 34 73 NE9 30.34F  
LIMA CLOUDY 43 37 79 NE12 30.27F HAZE  

 
 
OHZ009>014-019>023-028>033-038-089-082000-  
NORTHEAST OHIO  
 
CITY SKY/WX TMP DP RH WIND PRES REMARKS
 
CLE-HOPKINS DRIZZLE 41 37 86 N10 30.30F  
CLE-LAKEFRONT PTSUNNY 44 39 82 N12 30.31F  
CUY CO. ARPT CLOUDY 41 37 87 NE9 30.31S  
LORAIN-ELYRIA CLOUDY 41 37 86 NE8 30.32F  
ASHTABULA CLOUDY 43 36 76 NE3 30.31S  
AKRON-CANTON CLOUDY 46 39 76 N5 30.28S HAZE  
WOOSTER CLOUDY 43 39 86 N7 30.29F FOG  
MANSFIELD CLOUDY 41 38 89 N7 30.28F FOG  
YOUNGSTOWN CLOUDY 44 38 79 NE5 30.28F  

 
 
OHZ042-051>053-060>062-070>072-077>081-082000-  
SOUTHWEST OHIO  
 
CITY SKY/WX TMP DP RH WIND PRES REMARKS
 
CINC-COVINGTON LGT RAIN 45 44 97 E12 30.18F FOG  
CINC-LUNKEN LGT RAIN 47 44 90 E6 30.22F FOG  
HAMILTON PTSUNNY 46 40 79 NE8 30.23F  
DAYTON CLOUDY 45 38 76 E9 30.23F  
WRIGHT-PAT AFB CLOUDY 44 39 82 NE6 30.22F  
DAYTON GENERAL LGT RAIN 44 40 85 NE9 30.22F FOG  
WILMINGTON LGT RAIN 46 41 82 NE9 30.22F  

 
 
OHZ036-037-039>041-045>050-054>059-063>069-073>076-082>088-082000-  
CENTRAL AND SOUTHEAST OHIO  
 
CITY SKY/WX TMP DP RH WIND PRES REMARKS
 
COLUMBUS CLOUDY 46 41 82 N7 30.26F  
OSU AIRPORT LGT RAIN 47 40 76 NE7 30.25F  
BOLTON FIELD LGT RAIN 45 41 87 NE7 30.26F  
RICKENBACK AFB LGT RAIN 45 41 85 NE8 30.25F  
NEWARK CLOUDY 46 40 79 NE6 30.26F HAZE  
MARION CLOUDY 43 39 86 NE9 30.27F FOG  
LANCASTER CLOUDY 45 41 86 NE5 30.26F  
ZANESVILLE CLOUDY 46 40 79 NE5 30.27F  
NEW PHILLY PTSUNNY 47 40 76 N3 30.29S  

 
 
 
CLICK HERE TO GO TO PREVIOUS BULLETINS.

The Nexlab OH Page
The Nexlab PA Page Main Text Page